| time (UTC) | temp C | wind direction | speed KPH | gust KPH | rain 1hr cm | rain 24hr cm | rain mn cm | humidity % | barometer mb |
| 20260504190055 | 26 | 206 | 8.0 | 9.7 | 0.00 | 0.00 | 0.00 | 62 | |
| 20260504185615 | 26 | 236 | 8.0 | 9.7 | 0.00 | 0.00 | 0.00 | 62 | |
| 20260504185055 | 26 | 241 | 6.4 | 8.0 | 0.00 | 0.00 | 0.00 | 63 | |
| 20260504184555 | 26 | 210 | 9.7 | 9.7 | 0.00 | 0.00 | 0.00 | 63 | |
| 20260504184056 | 26 | 196 | 8.0 | 11.3 | 0.00 | 0.00 | 0.00 | 63 | |
| 20260504183555 | 26 | 172 | 8.0 | 9.7 | 0.00 | 0.00 | 0.00 | 63 | |
| 20260504183056 | 26 | 208 | 12.9 | 16.1 | 0.00 | 0.00 | 0.00 | 63 | |
| 20260504182616 | 25 | 187 | 6.4 | 8.0 | 0.00 | 0.00 | 0.00 | 63 | |
| 20260504182056 | 25 | 171 | 8.0 | 9.7 | 0.00 | 0.00 | 0.00 | 63 | |
| 20260504181556 | 26 | 162 | 8.0 | 8.0 | 0.00 | 0.00 | 0.00 | 62 | |
| 20260504181056 | 26 | 176 | 8.0 | 11.3 | 0.00 | 0.00 | 0.00 | 64 | |
| 20260504180556 | 25 | 173 | 11.3 | 12.9 | 0.00 | 0.00 | 0.00 | 62 | |
| 20260504180056 | 25 | 191 | 12.9 | 16.1 | 0.00 | 0.00 | 0.00 | 63 | |
| 20260504175556 | 25 | 186 | 9.7 | 14.5 | 0.00 | 0.00 | 0.00 | 65 | |
| 20260504175056 | 25 | 198 | 8.0 | 9.7 | 0.00 | 0.00 | 0.00 | 64 | |
| 20260504174556 | 25 | 217 | 8.0 | 9.7 | 0.00 | 0.00 | 0.00 | 64 | |
| 20260504174056 | 25 | 171 | 6.4 | 6.4 | 0.00 | 0.00 | 0.00 | 64 | |
| 20260504173617 | 25 | 164 | 8.0 | 9.7 | 0.00 | 0.00 | 0.00 | 64 | |
| 20260504173056 | 25 | 178 | 8.0 | 11.3 | 0.00 | 0.00 | 0.00 | 64 | |
| 20260504172557 | 25 | 191 | 9.7 | 11.3 | 0.00 | 0.00 | 0.00 | 65 | |
| 20260504172057 | 25 | 191 | 6.4 | 6.4 | 0.00 | 0.00 | 0.00 | 65 | |
| 20260504171557 | 24 | 204 | 8.0 | 9.7 | 0.00 | 0.00 | 0.00 | 66 | |
| 20260504171057 | 24 | 176 | 6.4 | 6.4 | 0.00 | 0.00 | 0.00 | 67 | |
| 20260504170557 | 24 | 191 | 6.4 | 8.0 | 0.00 | 0.00 | 0.00 | 67 | |
| 20260504151059 | 22 | 202 | 8.0 | 9.7 | 0.00 | 0.00 | 0.00 | 72 | |
| 20260504150619 | 22 | 199 | 8.0 | 9.7 | 0.00 | 0.00 | 0.00 | 72 | |
| 20260504141100 | 20 | 187 | 4.8 | 4.8 | 0.00 | 0.00 | 0.00 | 75 | |
| 20260504140620 | 20 | 162 | 4.8 | 8.0 | 0.00 | 0.00 | 0.00 | 74 | |
| 20260504140140 | 20 | 170 | 4.8 | 6.4 | 0.00 | 0.00 | 0.00 | 74 | |
| 20260504130601 | 17 | 143 | 3.2 | 3.2 | 0.00 | 0.00 | 0.00 | 78 | |
| 20260504110623 | 15 | 73 | 1.6 | 3.2 | 0.00 | 0.00 | 0.00 | 83 | |
| 20260504110103 | 15 | 34 | 1.6 | 1.6 | 0.00 | 0.00 | 0.00 | 82 | |
| 20260504100604 | 15 | 152 | 1.6 | 1.6 | 0.00 | 0.00 | 0.00 | 81 | |
| 20260504100105 | 15 | 181 | 0.0 | 1.6 | 0.00 | 0.00 | 0.00 | 81 | |
| 20260504090125 | 15 | 113 | 1.6 | 3.2 | 0.00 | 0.00 | 0.00 | 80 | |
| 20260504081626 | 16 | 164 | 1.6 | 3.2 | 0.00 | 0.00 | 0.00 | 79 | |
| 20260504081106 | 16 | 136 | 3.2 | 3.2 | 0.00 | 0.00 | 0.00 | 79 | |
| 20260504080606 | 16 | 184 | 3.2 | 3.2 | 0.00 | 0.00 | 0.00 | 79 | |
| 20260504080106 | 16 | 123 | 1.6 | 3.2 | 0.00 | 0.00 | 0.00 | 79 | |
| 20260504070108 | 16 | 212 | 1.6 | 1.6 | 0.00 | 0.00 | 0.00 | 81 | |
| 20260504060109 | 16 | 190 | 1.6 | 3.2 | 0.00 | 0.00 | 0.00 | 78 | |
| 20260504050650 | 17 | 211 | 1.6 | 3.2 | 0.00 | 0.00 | 0.00 | 76 | |
| 20260504050110 | 17 | 212 | 1.6 | 3.2 | 0.00 | 0.00 | 0.00 | 76 | |
| 20260504045610 | 17 | 202 | 3.2 | 3.2 | 0.00 | 0.00 | 0.00 | 76 | |
| 20260504045110 | 17 | 217 | 1.6 | 3.2 | 0.00 | 0.00 | 0.00 | 76 | |
| 20260504044610 | 17 | 195 | 1.6 | 3.2 | 0.00 | 0.00 | 0.00 | 75 | |
| 20260504044110 | 17 | 216 | 1.6 | 3.2 | 0.00 | 0.00 | 0.00 | 75 | |
| 20260504043630 | 17 | 215 | 1.6 | 3.2 | 0.00 | 0.00 | 0.00 | 76 | |
| 20260504043110 | 17 | 201 | 1.6 | 1.6 | 0.00 | 0.00 | 0.00 | 76 | |
| 20260504042610 | 17 | 200 | 1.6 | 3.2 | 0.00 | 0.00 | 0.00 | 75 | |
| 20260504042110 | 17 | 203 | 1.6 | 3.2 | 0.00 | 0.00 | 0.00 | 74 | |
| 20260504041610 | 17 | 225 | 0.0 | 0.0 | 0.00 | 0.00 | 0.00 | 74 | |
| 20260504041111 | 18 | 212 | 1.6 | 1.6 | 0.00 | 0.00 | 0.00 | 72 | |
| 20260504040611 | 18 | 199 | 1.6 | 1.6 | 0.00 | 0.00 | 0.00 | 72 | |
| 20260504040111 | 18 | 192 | 1.6 | 1.6 | 0.00 | 0.00 | 0.00 | 71 | |
| 20260504035611 | 18 | 196 | 3.2 | 3.2 | 0.00 | 0.00 | 0.00 | 70 | |
| 20260504035111 | 18 | 188 | 3.2 | 4.8 | 0.00 | 0.00 | 0.00 | 70 | |
| 20260504034651 | 18 | 166 | 3.2 | 4.8 | 0.00 | 0.00 | 0.00 | 69 | |
| 20260504034111 | 18 | 178 | 1.6 | 3.2 | 0.00 | 0.00 | 0.00 | 69 | |
| 20260504033611 | 18 | 177 | 3.2 | 3.2 | 0.00 | 0.00 | 0.00 | 69 | |
| 20260504033111 | 18 | 179 | 3.2 | 4.8 | 0.00 | 0.00 | 0.00 | 68 | |
| 20260504032611 | 18 | 183 | 3.2 | 4.8 | 0.00 | 0.00 | 0.00 | 68 | |
| 20260504032112 | 18 | 168 | 1.6 | 3.2 | 0.00 | 0.00 | 0.00 | 67 | |
| 20260504031611 | 19 | 165 | 3.2 | 4.8 | 0.00 | 0.00 | 0.00 | 67 | |
| 20260504031112 | 19 | 154 | 3.2 | 4.8 | 0.00 | 0.00 | 0.00 | 67 | |
| 20260504030612 | 19 | 162 | 3.2 | 4.8 | 0.00 | 0.00 | 0.00 | 66 | |
| 20260504030112 | 19 | 158 | 4.8 | 6.4 | 0.00 | 0.00 | 0.00 | 65 | |
| 20260504025612 | 19 | 164 | 3.2 | 4.8 | 0.00 | 0.00 | 0.00 | 65 | |
| 20260504025112 | 20 | 183 | 4.8 | 6.4 | 0.00 | 0.00 | 0.00 | 65 | |
| 20260504024613 | 20 | 172 | 4.8 | 4.8 | 0.00 | 0.00 | 0.00 | 64 | |
| 20260504024112 | 20 | 174 | 3.2 | 4.8 | 0.00 | 0.00 | 0.00 | 64 | |
| 20260504023612 | 20 | 187 | 3.2 | 4.8 | 0.00 | 0.00 | 0.00 | 64 | |
| 20260504023112 | 20 | 160 | 3.2 | 3.2 | 0.00 | 0.00 | 0.00 | 64 | |
| 20260504022613 | 20 | 148 | 3.2 | 4.8 | 0.00 | 0.00 | 0.00 | 63 | |
| 20260504022112 | 20 | 176 | 3.2 | 4.8 | 0.00 | 0.00 | 0.00 | 63 | |
| 20260504021653 | 20 | 207 | 3.2 | 4.8 | 0.00 | 0.00 | 0.00 | 62 | |
| 20260504021112 | 20 | 169 | 3.2 | 4.8 | 0.00 | 0.00 | 0.00 | 62 | |
| 20260504020613 | 20 | 167 | 3.2 | 6.4 | 0.00 | 0.00 | 0.00 | 62 | |
| 20260504020113 | 21 | 172 | 3.2 | 4.8 | 0.00 | 0.00 | 0.00 | 61 | |
| 20260504015613 | 21 | 169 | 4.8 | 4.8 | 0.00 | 0.00 | 0.00 | 60 | |
| 20260504015113 | 21 | 158 | 3.2 | 4.8 | 0.00 | 0.00 | 0.00 | 60 | |
| 20260504014613 | 21 | 181 | 4.8 | 4.8 | 0.00 | 0.00 | 0.00 | 59 | |
| 20260504014113 | 21 | 172 | 3.2 | 6.4 | 0.00 | 0.00 | 0.00 | 59 | |
| 20260504013613 | 21 | 170 | 3.2 | 4.8 | 0.00 | 0.00 | 0.00 | 59 | |
| 20260504013113 | 21 | 186 | 4.8 | 4.8 | 0.00 | 0.00 | 0.00 | 58 | |
| 20260504012613 | 21 | 158 | 4.8 | 6.4 | 0.00 | 0.00 | 0.00 | 56 | |
| 20260504012113 | 22 | 167 | 4.8 | 6.4 | 0.00 | 0.00 | 0.00 | 56 | |
| 20260504011633 | 22 | 170 | 4.8 | 4.8 | 0.00 | 0.00 | 0.00 | 55 | |
| 20260504011154 | 22 | 183 | 4.8 | 6.4 | 0.00 | 0.00 | 0.00 | 54 | |
| 20260504010613 | 22 | 157 | 3.2 | 4.8 | 0.00 | 0.00 | 0.00 | 54 | |
| 20260504010114 | 22 | 182 | 3.2 | 4.8 | 0.00 | 0.00 | 0.00 | 53 | |
| 20260504005613 | 22 | 172 | 4.8 | 4.8 | 0.00 | 0.00 | 0.00 | 52 | |
| 20260504005134 | 23 | 192 | 3.2 | 4.8 | 0.00 | 0.00 | 0.00 | 52 | |
| 20260504004614 | 23 | 157 | 4.8 | 8.0 | 0.00 | 0.00 | 0.00 | 52 | |
| 20260504004114 | 23 | 133 | 3.2 | 4.8 | 0.00 | 0.00 | 0.00 | 52 | |
| 20260504003614 | 23 | 170 | 4.8 | 6.4 | 0.00 | 0.00 | 0.00 | 52 | |
| 20260504003114 | 23 | 179 | 4.8 | 6.4 | 0.00 | 0.00 | 0.00 | 51 | |
| 20260504002614 | 23 | 151 | 6.4 | 8.0 | 0.00 | 0.00 | 0.00 | 50 | |
| 20260504002114 | 23 | 136 | 4.8 | 4.8 | 0.00 | 0.00 | 0.00 | 50 | |
| 20260504001614 | 23 | 161 | 6.4 | 8.0 | 0.00 | 0.00 | 0.00 | 49 | |
| 20260504001114 | 24 | 166 | 4.8 | 8.0 | 0.00 | 0.00 | 0.00 | 49 | |
| 20260504000615 | 24 | 151 | 6.4 | 8.0 | 0.00 | 0.00 | 0.00 | 48 | |
| 20260504000114 | 24 | 142 | 8.0 | 8.0 | 0.00 | 0.00 | 0.00 | 47 | |
| 20260503235614 | 25 | 156 | 6.4 | 9.7 | 0.00 | 0.00 | 0.00 | 46 | |
| 20260503235134 | 25 | 161 | 6.4 | 8.0 | 0.00 | 0.00 | 0.00 | 44 | |
| 20260503234634 | 25 | 178 | 3.2 | 4.8 | 0.00 | 0.00 | 0.00 | 43 | |
| 20260503234115 | 25 | 175 | 3.2 | 4.8 | 0.00 | 0.00 | 0.00 | 42 | |
| 20260503233615 | 25 | 193 | 4.8 | 8.0 | 0.00 | 0.00 | 0.00 | 42 | |
| 20260503233115 | 25 | 183 | 4.8 | 6.4 | 0.00 | 0.00 | 0.00 | 41 | |
| 20260503232635 | 25 | 163 | 6.4 | 8.0 | 0.00 | 0.00 | 0.00 | 39 | |
| 20260503232115 | 25 | 212 | 3.2 | 4.8 | 0.00 | 0.00 | 0.00 | 39 | |
| 20260503231615 | 25 | 132 | 4.8 | 4.8 | 0.00 | 0.00 | 0.00 | 38 | |
| 20260503231115 | 25 | 187 | 4.8 | 8.0 | 0.00 | 0.00 | 0.00 | 38 | |
| 20260503230615 | 25 | 188 | 6.4 | 8.0 | 0.00 | 0.00 | 0.00 | 37 | |
| 20260503230115 | 25 | 94 | 4.8 | 4.8 | 0.00 | 0.00 | 0.00 | 37 | |
| 20260503225615 | 25 | 199 | 4.8 | 8.0 | 0.00 | 0.00 | 0.00 | 40 | |
| 20260503225115 | 25 | 195 | 4.8 | 6.4 | 0.00 | 0.00 | 0.00 | 38 | |
| 20260503224616 | 25 | 142 | 6.4 | 8.0 | 0.00 | 0.00 | 0.00 | 38 | |
| 20260503224116 | 25 | 100 | 6.4 | 6.4 | 0.00 | 0.00 | 0.00 | 37 | |
| 20260503223616 | 25 | 136 | 3.2 | 4.8 | 0.00 | 0.00 | 0.00 | 38 | |
| 20260503223116 | 25 | 104 | 4.8 | 6.4 | 0.00 | 0.00 | 0.00 | 37 | |
| 20260503222636 | 26 | 139 | 6.4 | 8.0 | 0.00 | 0.00 | 0.00 | 38 | |
| 20260503222116 | 25 | 182 | 4.8 | 8.0 | 0.00 | 0.00 | 0.00 | 40 | |
| 20260503221616 | 25 | 140 | 4.8 | 6.4 | 0.00 | 0.00 | 0.00 | 38 | |
| 20260503221016 | 25 | 180 | 6.4 | 8.0 | 0.00 | 0.00 | 0.00 | 39 | |
| 20260503220516 | 25 | 198 | 6.4 | 8.0 | 0.00 | 0.00 | 0.00 | 40 | |
| 20260503220037 | 25 | 187 | 4.8 | 6.4 | 0.00 | 0.00 | 0.00 | 39 | |
| 20260503215537 | 25 | 188 | 6.4 | 8.0 | 0.00 | 0.00 | 0.00 | 39 | |
| 20260503215016 | 26 | 211 | 6.4 | 8.0 | 0.00 | 0.00 | 0.00 | 39 | |
| 20260503214637 | 26 | 222 | 4.8 | 6.4 | 0.00 | 0.00 | 0.00 | 39 | |
| 20260503214117 | 25 | 154 | 4.8 | 6.4 | 0.00 | 0.00 | 0.00 | 38 | |
| 20260503213617 | 25 | 151 | 4.8 | 6.4 | 0.00 | 0.00 | 0.00 | 38 | |
| 20260503213137 | 26 | 185 | 6.4 | 9.7 | 0.00 | 0.00 | 0.00 | 38 | |
| 20260503212617 | 26 | 166 | 6.4 | 9.7 | 0.00 | 0.00 | 0.00 | 38 | |
| 20260503212017 | 26 | 162 | 6.4 | 6.4 | 0.00 | 0.00 | 0.00 | 38 | |
| 20260503211517 | 26 | 130 | 6.4 | 6.4 | 0.00 | 0.00 | 0.00 | 39 | |
| 20260503211017 | 26 | 185 | 4.8 | 6.4 | 0.00 | 0.00 | 0.00 | 41 | |
| 20260503210518 | 26 | 148 | 6.4 | 8.0 | 0.00 | 0.00 | 0.00 | 40 | |
| 20260503210058 | 26 | 171 | 6.4 | 6.4 | 0.00 | 0.00 | 0.00 | 39 | |
| 20260503205518 | 26 | 126 | 6.4 | 8.0 | 0.00 | 0.00 | 0.00 | 39 | |
| 20260503205018 | 26 | 106 | 6.4 | 6.4 | 0.00 | 0.00 | 0.00 | 39 | |
| 20260503204518 | 26 | 140 | 4.8 | 6.4 | 0.00 | 0.00 | 0.00 | 41 | |
| 20260503204018 | 26 | 110 | 6.4 | 8.0 | 0.00 | 0.00 | 0.00 | 40 | |
| 20260503203518 | 26 | 114 | 4.8 | 8.0 | 0.00 | 0.00 | 0.00 | 41 | |
| 20260503203018 | 26 | 122 | 6.4 | 6.4 | 0.00 | 0.00 | 0.00 | 41 | |
| 20260503202538 | 26 | 147 | 4.8 | 6.4 | 0.00 | 0.00 | 0.00 | 41 | |
| 20260503202059 | 26 | 222 | 4.8 | 6.4 | 0.00 | 0.00 | 0.00 | 41 | |
| 20260503201518 | 26 | 92 | 4.8 | 6.4 | 0.00 | 0.00 | 0.00 | 41 | |
| 20260503201018 | 26 | 66 | 4.8 | 6.4 | 0.00 | 0.00 | 0.00 | 40 | |
| 20260503200518 | 26 | 31 | 4.8 | 6.4 | 0.00 | 0.00 | 0.00 | 40 | |
| 20260503200019 | 26 | 67 | 4.8 | 6.4 | 0.00 | 0.00 | 0.00 | 39 | |
| 20260503195519 | 26 | 113 | 4.8 | 6.4 | 0.00 | 0.00 | 0.00 | 41 | |
| 20260503195019 | 26 | 225 | 4.8 | 4.8 | 0.00 | 0.00 | 0.00 | 42 | |
| 20260503194519 | 25 | 174 | 6.4 | 8.0 | 0.00 | 0.00 | 0.00 | 42 | |
| 20260503194019 | 25 | 137 | 4.8 | 8.0 | 0.00 | 0.00 | 0.00 | 42 | |
| 20260503193519 | 25 | 159 | 6.4 | 8.0 | 0.00 | 0.00 | 0.00 | 41 | |
| 20260503193019 | 26 | 40 | 4.8 | 6.4 | 0.00 | 0.00 | 0.00 | 41 | |
| 20260503192539 | 25 | 153 | 3.2 | 4.8 | 0.00 | 0.00 | 0.00 | 43 | |
| 20260503192019 | 25 | 247 | 4.8 | 6.4 | 0.00 | 0.00 | 0.00 | 43 | |
| 20260503191600 | 25 | 195 | 6.4 | 9.7 | 0.00 | 0.00 | 0.00 | 44 | |
| 20260503191019 | 25 | 154 | 4.8 | 6.4 | 0.00 | 0.00 | 0.00 | 44 |